Weather observations for the past three days for
Eagle County Regional
Imperial (Metric)
Date Time (mdt) Wind (mph) Vis. (mi.) Weather Sky Cond. Temperature (ºF) Relative Humidity Wind Chill (°F) Heat Index (°F) Pressure Precipitation (in)
Air Dwpt 6 hour altimeter (in) sea level (mb) 1 hr 3 hr 6 hr
Max. Min.
23 22:56 E 7 10.00 Fair CLR 64.9 36 34% 30.37 1017.6
23 21:56 NE 6 10.00 Fair CLR 66.9 37.9 35% 30.35 1017.0
23 20:56 S 5 10.00 Fair CLR 77 34 21% 77 30.32 1016.0
23 19:56 N 8 10.00 Fair CLR 84 28 13% 81 30.3 1015.4
23 18:56 NE 5 10.00 Fair CLR 87.1 25 10% 84 30.28 1014.9
23 17:56 N 12 G 16 10.00 Fair CLR 89.1 23 89.1 73.9 9% 85 30.27 1014.6
23 16:56 S 7 7.00 Fair CLR 87.1 28.9 12% 83 30.28 1014.9
23 15:56 S 7 9.00 Fair CLR 86 28.9 13% 83 30.29 1015.3
23 14:56 Vrbl 6 9.00 Fair CLR 84.9 33.1 15% 82 30.31 1015.8
23 13:56 S 7 9.00 Fair CLR 82 33.1 17% 80 30.33 1016.3
23 12:56 SW 5 8.00 Fair CLR 80.1 36 20% 79 30.35 1016.9
23 11:56 W 3 10.00 Fair CLR 73.9 39.9 73.9 46 29% 30.37 1017.4
23 10:56 Vrbl 3 10.00 Fair CLR 69.1 41 36% 30.39 1018.1
23 09:56 Vrbl 3 10.00 Fair CLR 64.9 41 42% 30.41 1018.6
23 08:56 Calm 10.00 Fair CLR 57.9 39.9 51% 30.43 1019.1
23 07:56 Calm 10.00 Fair CLR 54 39.9 59% 30.43 1019.3
23 06:56 Calm 10.00 Fair CLR 48.9 39.9 71% 30.42 1019.0
23 05:56 Calm 10.00 Fair CLR 48.9 39 60.1 48 69% 30.4 1018.4
23 04:56 E 5 10.00 Fair CLR 48.9 39.9 71% 48 30.38 1017.9
23 03:56 E 3 10.00 Fair CLR 51.1 39.9 66% 30.38 1017.7
23 02:56 E 3 10.00 Fair CLR 53.1 39.9 61% 30.37 1017.5
23 01:56 Calm 10.00 Fair CLR 55.9 39 53% 30.36 1017.2
23 00:56 Calm 10.00 Fair CLR 57 39.9 53% 30.34 1016.8
22 23:56 E 6 10.00 Fair CLR 59 42.1 84 59 54% 30.33 1016.4
22 22:56 E 5 10.00 Fair CLR 64.9 41 42% 30.32 1016.0
22 21:56 E 8 10.00 Fair CLR 68 41 38% 30.29 1015.3
22 20:56 Vrbl 6 10.00 Mostly Cloudy BKN120 73.9 37.9 27% 30.27 1014.6
22 19:56 E 15 10.00 Mostly Cloudy BKN110 77 39 26% 77 30.24 1013.8
22 18:56 NE 10 10.00 Mostly Cloudy BKN110 82 36 19% 80 30.22 1013.3
22 16:56 W 7 10.00 A Few Clouds FEW120 82 35.1 18% 80 30.23 1013.5
22 15:56 SE 6 10.00 Fair CLR 82 36 19% 80 30.25 1014.0
22 14:56 Calm 10.00 Fair CLR 82 37.9 21% 80 30.27 1014.6
22 13:56 Calm 9.00 A Few Clouds FEW120 80.1 37 21% 79 30.29 1015.1
22 12:56 Vrbl 3 9.00 Fair CLR 79 39.9 25% 78 30.31 1015.8
22 11:56 Calm 10.00 Fair CLR 73 42.1 73 46 33% 30.33 1016.4
22 10:56 Calm 10.00 Fair CLR 66.9 42.1 41% 30.36 1017.3
22 09:56 NW 5 10.00 Fair CLR 64 42.1 45% 30.39 1018.0
22 08:56 Calm 10.00 Fair CLR 57 43 60% 30.41 1018.7
22 07:56 NE 3 10.00 Fair CLR 52 43 72% 30.42 1018.9
22 06:56 E 3 10.00 Fair CLR 46.9 42.1 83% 30.41 1018.6
22 05:56 E 3 10.00 Fair CLR 46.9 42.1 57 46.9 83% 30.39 1018.2
22 04:56 SE 5 10.00 Fair CLR 48 43 83% 47 30.38 1017.9
22 03:56 E 6 10.00 Fair CLR 48.9 44.1 83% 47 30.37 1017.7
22 02:56 E 6 10.00 Fair CLR 50 45 83% 48 30.37 1017.6
22 01:56 E 3 10.00 Fair CLR 52 45 77% 30.38 1017.7
22 00:56 E 6 10.00 Fair CLR 55 46 72% 30.37 1017.5
21 23:56 E 6 10.00 Fair CLR 55.9 46 75.9 55.9 70% 30.36 1017.3
21 22:56 NE 3 10.00 Fair CLR 59 46.9 64% 30.36 1017.1
21 21:56 S 5 10.00 Mostly Cloudy BKN110 64.9 43 45% 30.34 1016.7
21 20:56 Calm 10.00 Fair CLR 68 43 40% 30.33 1016.4
21 19:56 E 5 10.00 Fair CLR 72 46.9 41% 30.31 1015.8
21 18:56 E 9 10.00 Partly Cloudy FEW100 SCT120 75 43 32% 77 30.3 1015.5
21 17:56 SE 10 10.00 Partly Cloudy SCT120 73.9 44.1 81 64 34% 30.31 1015.7
21 16:56 SE 14 10.00 Overcast FEW031 OVC090 73 46.9 40% 30.32 1016.0
21 15:56 E 18 10.00 Overcast OVC100 68 50 53% 30.33 1016.3
21 14:56 E 6 10.00 Light Rain CLR 75.9 48 37% 78 30.28 1014.9
21 13:56 NE 10 10.00 Partly Cloudy SCT110 78.1 43 29% 78 30.3 1015.3
21 12:56 E 13 G 20 9.00 Partly Cloudy SCT080 77 45 32% 78 30.32 1016.0
21 11:56 Vrbl 6 9.00 Fair CLR 77 44.1 77 54 31% 78 30.34 1016.6
21 10:56 Calm 8.00 Fair CLR 75 46.9 37% 77 30.37 1017.4
21 09:56 Calm 9.00 Fair CLR 69.1 46.9 45% 30.38 1017.8
21 08:56 Vrbl 3 10.00 Fair CLR 64.9 46 51% 30.39 1018.1
21 07:56 Calm 10.00 Fair CLR 62.1 46 56% 30.4 1018.4
21 06:56 Calm 10.00 Fair CLR 55.9 45 67% 30.39 1018.1
21 05:56 SE 3 10.00 Fair CLR 55 44.1 69.1 55 67% 30.38 1017.8
21 04:56 Calm 10.00 Fair CLR 57.9 45 62% 30.37 1017.5
21 03:56 NE 3 10.00 Fair CLR 60.1 45 58% 30.36 1017.3
21 02:56 Calm 10.00 Fair CLR 63 45 52% 30.37 1017.4
21 01:56 E 8 10.00 Fair CLR 64 45 50% 30.38 1017.7
21 00:56 Calm 10.00 Fair CLR 64.9 44.1 47% 30.38 1017.9
Date Time (mdt) Wind (mph) Vis. (mi.) Weather Sky Cond. Air Dwpt Max. Min. Relative Humidity Wind Chill (°F) Heat Index (°F) altimeter (in) sea level (mb) 1 hr 3 hr 6 hr
6 hour
Temperature (ºF) Pressure Precipitation (in)